Weather History for Bedford, MA

Change the Weather History Date:

Thursday, May 2, 2013

  Actual Average Record
Temperature  
Mean Temperature 55 °F -  
Max Temperature 78 °F 65 °F 91 °F (2001)
Min Temperature 37 °F 42 °F 27 °F (1964)
Degree Days  
Heating Degree Days 10    
Growing Degree Days 5 (Base 50)    
Moisture  
Dew Point 33 °F    
Average Humidity 54    
Maximum Humidity 96    
Minimum Humidity 7    
Precipitation  
Precipitation 0.00 in - - ()
Sea Level Pressure  
Sea Level Pressure 30.46 in    
Wind  
Wind Speed 3 mph (ENE)    
Max Wind Speed 22 mph    
Max Gust Speed 26 mph    
Visibility 10 miles    
Events Rain    
Averages and records for this station are not official NWS values.
T = Trace of Precipitation, MM = Missing Value Source: NWS Daily Summary

Daily Weather History Graph

Daily Weather History Graph

Search for Another Location

Airport:

Trip Planner

Search our weather history database for the weather conditions in past years. The results will help you decide how hot, cold, wet, or windy it might be!

Date:

Astronomy

May. 02, 2013 Rise Set
Actual Time 5:38 AM EDT 7:46 PM EDT
Civil Twilight 5:07 AM EDT 8:17 PM EDT
Nautical Twilight 4:29 AM EDT 8:55 PM EDT
Astronomical Twilight 3:48 AM EDT 9:37 PM EDT
Moon 1:33 AM EDT (5/2) 12:23 PM EDT (5/2)
Length of Visible Light 15h 09m
Length of Day
14h 07m
Waning Gibbous, 48% of the Moon is Illuminated
May 2
Waning Gibbous
May 9
New
May 18
First Quarter
May 25
Full
May 31
Last Quarter

Hourly Weather History & Observations

Time (EDT) Temp. Windchill Dew Point Humidity Pressure Visibility Wind Dir Wind Speed Gust Speed Precip Events Conditions
12:56 AM 42.1 °F - 36.0 °F 79% 30.48 in 10.0 mi Calm Calm - N/A   Clear
1:56 AM 41.0 °F - 37.0 °F 86% 30.46 in 10.0 mi Calm Calm - N/A   Clear
2:56 AM 41.0 °F - 37.0 °F 86% 30.46 in 10.0 mi Calm Calm - N/A   Clear
3:56 AM 41.0 °F - 37.0 °F 86% 30.46 in 10.0 mi Calm Calm - N/A   Clear
4:56 AM 37.9 °F - 36.0 °F 93% 30.46 in 10.0 mi Calm Calm - N/A   Clear
5:56 AM 37.0 °F - 36.0 °F 96% 30.46 in 10.0 mi Calm Calm - N/A   Clear
6:56 AM 44.1 °F - 42.1 °F 93% 30.47 in 10.0 mi Calm Calm - N/A   Clear
7:56 AM 53.1 °F - 45.0 °F 74% 30.47 in 10.0 mi Calm Calm - N/A   Clear
8:56 AM 59.0 °F - 44.1 °F 58% 30.47 in 10.0 mi Calm Calm - N/A   Clear
9:56 AM 64.0 °F - 43.0 °F 46% 30.46 in 10.0 mi Calm Calm - N/A   Clear
10:56 AM 69.1 °F - 44.1 °F 40% 30.45 in 10.0 mi Calm Calm - N/A   Clear
11:56 AM 71.1 °F - 39.0 °F 31% 30.43 in 10.0 mi Variable 4.6 mph - N/A   Clear
12:56 PM 73.9 °F - 39.0 °F 28% 30.40 in 10.0 mi Variable 3.5 mph - N/A   Clear
1:56 PM 73.9 °F - 37.9 °F 27% 30.39 in 10.0 mi Calm Calm - N/A   Partly Cloudy
2:56 PM 73.0 °F - 39.0 °F 29% 30.39 in 10.0 mi East 17.3 mph 25.3 mph N/A   Clear
3:56 PM 69.1 °F - 37.0 °F 31% 30.41 in 10.0 mi East 21.9 mph 26.5 mph N/A   Clear
4:56 PM 61.0 °F - 44.1 °F 54% 30.43 in 10.0 mi East 16.1 mph 23.0 mph N/A   Mostly Cloudy
5:56 PM 55.9 °F - 43.0 °F 62% 30.45 in 10.0 mi East 11.5 mph - N/A   Overcast
6:56 PM 52.0 °F - 41.0 °F 66% 30.48 in 10.0 mi NE 11.5 mph - N/A   Mostly Cloudy
7:56 PM 50.0 °F - -8.0 °F 9% 30.51 in 10.0 mi ENE 8.1 mph - N/A   Overcast
8:56 PM 50.0 °F - -14.1 °F 7% 30.52 in 10.0 mi ESE 9.2 mph - 0.00 in Rain Light Rain
9:56 PM 48.9 °F - -11.0 °F 8% 30.52 in 10.0 mi NE 5.8 mph - 0.00 in   Overcast
10:56 PM 46.0 °F 44.8 °F - N/A% 30.52 in 10.0 mi NNE 3.5 mph - N/A   Clear
11:56 PM 43.0 °F 40.3 °F - N/A% 30.53 in 10.0 mi North 4.6 mph - N/A   Clear